THY6048 LGAV-LTFM

Flight info

Callsign THY6048
Flight time N/A
Altitude 37000
Route LGAV/03R KRO2E KRO UN604 INBET INBE2A LTFM/34L
Aircraft B739/M-SDE/L

Departure

Time 2026-05-04 12:33
Airport Athens Eleftherios Venizelos International Airport (LGAV)

Arrival

Time N/A
Airport İstanbul Airport (LTFM)
Time Latitude Longitude Altitude Speed Heading
2026-05-04 11:59 37.93838 23.95060 281 ft 0 kts 306°
2026-05-04 12:18 37.93828 23.95077 284 ft 3 kts 306°
2026-05-04 12:19 37.93817 23.95101 286 ft 3 kts 267°
2026-05-04 12:19 37.93823 23.95120 284 ft 0 kts 227°
2026-05-04 12:26 37.93822 23.95119 280 ft 1 kts 225°
2026-05-04 12:27 37.93792 23.95112 280 ft 9 kts 187°
2026-05-04 12:27 37.93710 23.95130 281 ft 15 kts 141°
2026-05-04 12:27 37.93618 23.95230 281 ft 20 kts 178°
2026-05-04 12:27 37.93487 23.95125 283 ft 26 kts 217°
2026-05-04 12:28 37.93328 23.94977 283 ft 31 kts 217°
2026-05-04 12:28 37.93143 23.94801 287 ft 36 kts 217°
2026-05-04 12:28 37.92934 23.94604 290 ft 39 kts 217°
2026-05-04 12:28 37.92707 23.94387 293 ft 43 kts 216°
2026-05-04 12:29 37.92501 23.94188 295 ft 18 kts 217°
2026-05-04 12:29 37.92453 23.94165 292 ft 2 kts 176°
2026-05-04 12:29 37.92439 23.94171 295 ft 2 kts 155°
2026-05-04 12:29 37.92428 23.94182 294 ft 2 kts 135°
2026-05-04 12:30 37.92420 23.94198 294 ft 2 kts 115°
2026-05-04 12:30 37.92417 23.94217 294 ft 2 kts 98°
2026-05-04 12:30 37.92417 23.94218 294 ft 0 kts 98°
2026-05-04 12:31 37.92416 23.94233 294 ft 4 kts 95°
2026-05-04 12:31 37.92414 23.94287 291 ft 8 kts 89°
2026-05-04 12:31 37.92423 23.94375 296 ft 11 kts 66°
2026-05-04 12:32 37.92485 23.94453 293 ft 14 kts 37°
2026-05-04 12:32 37.93087 23.95029 284 ft 124 kts 36°
2026-05-04 12:32 37.93960 23.95869 395 ft 185 kts 38°
2026-05-04 12:33 37.95049 23.96886 1251 ft 206 kts 36°
2026-05-04 12:33 37.96226 23.98021 2205 ft 214 kts 34°
2026-05-04 12:33 37.97392 23.99164 3447 ft 210 kts 33°
2026-05-04 12:33 37.98585 24.00311 4348 ft 218 kts 34°
2026-05-04 12:34 37.99793 24.01472 5357 ft 221 kts 33°
2026-05-04 12:34 38.01034 24.02665 6264 ft 226 kts 32°
2026-05-04 12:34 38.02291 24.03876 7191 ft 227 kts 32°
2026-05-04 12:34 38.03553 24.05092 8126 ft 228 kts 33°
2026-05-04 12:35 38.04819 24.06313 9047 ft 230 kts 33°
2026-05-04 12:35 38.06093 24.07542 10018 ft 230 kts 34°
2026-05-04 12:35 38.07363 24.08768 10871 ft 232 kts 34°
2026-05-04 12:35 38.08540 24.10220 11663 ft 241 kts 56°
2026-05-04 12:36 38.09041 24.12276 12482 ft 251 kts 83°
2026-05-04 12:36 38.08808 24.14503 13343 ft 259 kts 102°
2026-05-04 12:36 38.08247 24.16696 14154 ft 263 kts 104°
2026-05-04 12:36 38.07643 24.18900 14890 ft 266 kts 105°
2026-05-04 12:37 38.07030 24.21124 15661 ft 267 kts 105°
2026-05-04 12:37 38.06428 24.23325 16408 ft 270 kts 105°
2026-05-04 12:37 38.05812 24.25594 16871 ft 273 kts 105°
2026-05-04 12:37 38.05194 24.27888 16981 ft 277 kts 104°
2026-05-04 12:38 38.04571 24.30207 16978 ft 277 kts 106°
2026-05-04 12:38 38.03958 24.32493 16975 ft 273 kts 105°
2026-05-04 12:38 38.03580 24.34845 16965 ft 278 kts 81°
2026-05-04 12:38 38.04249 24.37196 16995 ft 299 kts 53°
2026-05-04 12:39 38.05599 24.39360 17012 ft 327 kts 49°
2026-05-04 12:39 38.07100 24.41666 17093 ft 352 kts 49°
2026-05-04 12:39 38.08709 24.44137 17238 ft 373 kts 49°
2026-05-04 12:39 38.10394 24.46750 17438 ft 390 kts 49°
2026-05-04 12:40 38.12123 24.49465 17819 ft 400 kts 50°
2026-05-04 12:40 38.13873 24.52240 18362 ft 406 kts 50°
2026-05-04 12:40 38.15631 24.55048 19037 ft 405 kts 51°
2026-05-04 12:40 38.17388 24.57868 19603 ft 409 kts 51°
2026-05-04 12:41 38.19156 24.60713 20195 ft 411 kts 51°
2026-05-04 12:41 38.20943 24.63593 20711 ft 415 kts 51°
2026-05-04 12:41 38.22731 24.66479 21267 ft 418 kts 51°
2026-05-04 12:41 38.24524 24.69377 21924 ft 417 kts 51°